Location: *
(37.5724°S, 58.0067°E)
Time: 10:55:31
(UTC+00:00)

Lacrosse 5 - Pass Details

Date: 24 January 2021
Orbit: 715 x 724 km, 57.0° (Epoch: 22 February)

Event Time Altitude Azimuth Distance (km) Brightness Sun altitude
Rises 00:03:02 0° 214° (SW) 3,170 5.2 -12.7°
Reaches altitude 10° 00:07:11 10° 182° (S) 2,245 4.9 -12.1°
Maximum altitude 00:09:04 12° 161° (SSE) 2,117 5.2 -11.8°
Drops below altitude 10° 00:10:57 10° 139° (SE) 2,241 5.8 -11.5°
Sets 00:15:04 0° 107° (ESE) 3,157 6.8 -10.8°
